• In Germany
  • List of Countries
  • For 7 days
  • Water Temperature
  • Satellite Maps
  • Weather Map
  • Weather Widgets
  • user-avatar
    Login

    Hourly Weather Lesniki

    Today, 23 April, Monday

    Time Temperature Precipitation Wind Pressure Humidity
    00:00 +3°C° 0 mm 2 mps 738 mmHg 75%
    01:00 +3°C° 0 mm 2 mps 739 mmHg 75%
    02:00 +2°C° 0 mm 2 mps 739 mmHg 76%
    03:00 +1°C° 0 mm 2 mps 740 mmHg 78%
    04:00 +1°C° 0 mm 2 mps 740 mmHg 80%
    05:00 -1°C° 0 mm 2 mps 740 mmHg 82%
    06:00 +1°C° 0 mm 2 mps 741 mmHg 73%
    07:00 +2°C° 0 mm 3 mps 741 mmHg 63%
    08:00 +3°C° 0 mm 3 mps 741 mmHg 54%
    09:00 +4°C° 0 mm 3 mps 741 mmHg 50%
    10:00 +5°C° 0 mm 3 mps 742 mmHg 45%
    11:00 +7°C° 0 mm 2 mps 742 mmHg 40%
    12:00 +8°C° 0 mm 2 mps 742 mmHg 39%
    13:00 +8°C° 0 mm 2 mps 741 mmHg 37%
    14:00 +9°C° 0 mm 2 mps 741 mmHg 35%
    15:00 +9°C° 0 mm 2 mps 741 mmHg 36%
    16:00 +9°C° 0 mm 2 mps 741 mmHg 37%
    17:00 +9°C° 0 mm 2 mps 741 mmHg 38%
    18:00 +9°C° 0 mm 1 mps 741 mmHg 42%
    19:00 +7°C° 0 mm 1 mps 741 mmHg 47%
    20:00 +4°C° 0 mm 0 mps 741 mmHg 52%
    21:00 +5°C° 0 mm 1 mps 741 mmHg 53%
    22:00 +5°C° 0 mm 1 mps 741 mmHg 54%
    23:00 +3°C° 0 mm 2 mps 741 mmHg 56%

    Tomorrow, 24 April, Tuesday

    Time Temperature Precipitation Wind Pressure Humidity
    00:00 +3°C° 0 mm 2 mps 740 mmHg 58%
    01:00 +3°C° 0 mm 2 mps 740 mmHg 60%
    02:00 +2°C° 0 mm 2 mps 740 mmHg 62%
    03:00 +2°C° 0 mm 2 mps 740 mmHg 63%
    04:00 +1°C° 0 mm 3 mps 740 mmHg 65%
    05:00 +1°C° 0 mm 3 mps 739 mmHg 66%
    06:00 +2°C° 0.1 mm 3 mps 739 mmHg 65%
    07:00 +4°C° 0.1 mm 4 mps 738 mmHg 65%
    08:00 +5°C° 0.1 mm 4 mps 738 mmHg 64%
    09:00 +6°C° 0.1 mm 4 mps 738 mmHg 67%
    10:00 +6°C° 0.1 mm 4 mps 737 mmHg 69%
    11:00 +7°C° 0.1 mm 5 mps 737 mmHg 72%
    12:00 +7°C° 0.1 mm 4 mps 737 mmHg 75%
    13:00 +7°C° 0.1 mm 4 mps 737 mmHg 77%
    14:00 +7°C° 0.1 mm 4 mps 736 mmHg 80%
    15:00 +8°C° 0.1 mm 3 mps 736 mmHg 82%
    16:00 +8°C° 0.1 mm 3 mps 736 mmHg 85%
    17:00 +8°C° 0.1 mm 3 mps 735 mmHg 87%
    18:00 +8°C° 0.1 mm 2 mps 735 mmHg 90%
    19:00 +7°C° 0.1 mm 2 mps 735 mmHg 93%
    20:00 +7°C° 0.1 mm 2 mps 735 mmHg 96%
    21:00 +7°C° 0 mm 2 mps 735 mmHg 95%
    22:00 +7°C° 0 mm 3 mps 735 mmHg 94%
    23:00 +5°C° 0 mm 3 mps 735 mmHg 93%

    Day after tomorrow, 25 April, Wednesday

    Time Temperature Precipitation Wind Pressure Humidity
    00:00 +5°C° 0 mm 3 mps 736 mmHg 93%
    01:00 +4°C° 0 mm 3 mps 736 mmHg 93%
    02:00 +4°C° 0 mm 3 mps 736 mmHg 93%
    03:00 +4°C° 0 mm 3 mps 736 mmHg 93%
    04:00 +3°C° 0 mm 3 mps 736 mmHg 93%
    05:00 +3°C° 0 mm 3 mps 736 mmHg 94%
    06:00 +4°C° 0.1 mm 3 mps 736 mmHg 90%
    07:00 +6°C° 0.1 mm 4 mps 736 mmHg 86%
    08:00 +7°C° 0.1 mm 4 mps 736 mmHg 82%
    09:00 +8°C° 0.1 mm 5 mps 736 mmHg 82%
    10:00 +9°C° 0.1 mm 5 mps 736 mmHg 82%
    11:00 +9°C° 0.1 mm 5 mps 736 mmHg 83%
    12:00 +10°C° 0.1 mm 5 mps 736 mmHg 79%
    13:00 +12°C° 0.1 mm 5 mps 735 mmHg 76%
    14:00 +13°C° 0.1 mm 6 mps 735 mmHg 72%
    15:00 +13°C° 0.1 mm 5 mps 735 mmHg 72%
    16:00 +13°C° 0.1 mm 5 mps 735 mmHg 72%
    17:00 +13°C° 0.1 mm 5 mps 735 mmHg 72%
    18:00 +12°C° 0.1 mm 4 mps 735 mmHg 79%
    19:00 +11°C° 0.1 mm 4 mps 735 mmHg 85%
    20:00 +10°C° 0.1 mm 3 mps 734 mmHg 91%
    21:00 +10°C° 0.4 mm 4 mps 734 mmHg 92%
    22:00 +11°C° 0.4 mm 4 mps 734 mmHg 92%
    23:00 +10°C° 0.4 mm 5 mps 734 mmHg 93%

    26 April, Thursday

    Time Temperature Precipitation Wind Pressure Humidity
    00:00 +10°C° 0.6 mm 4 mps 734 mmHg 93%
    01:00 +10°C° 0.6 mm 4 mps 734 mmHg 93%
    02:00 +9°C° 0.6 mm 3 mps 734 mmHg 93%
    03:00 +9°C° 0.7 mm 3 mps 734 mmHg 93%
    04:00 +8°C° 0.7 mm 3 mps 734 mmHg 93%
    05:00 +7°C° 0.7 mm 3 mps 734 mmHg 93%
    06:00 +7°C° 0.1 mm 3 mps 734 mmHg 88%
    07:00 +8°C° 0.1 mm 3 mps 734 mmHg 83%
    08:00 +7°C° 0.1 mm 4 mps 735 mmHg 78%
    09:00 +10°C° 0 mm 4 mps 735 mmHg 71%
    10:00 +10°C° 0 mm 5 mps 736 mmHg 63%
    11:00 +11°C° 0 mm 6 mps 736 mmHg 56%
    12:00 +13°C° 0 mm 6 mps 736 mmHg 52%
    13:00 +13°C° 0 mm 6 mps 736 mmHg 49%
    14:00 +14°C° 0 mm 6 mps 736 mmHg 46%
    15:00 +14°C° 0 mm 6 mps 736 mmHg 48%
    16:00 +14°C° 0 mm 5 mps 737 mmHg 50%
    17:00 +13°C° 0 mm 4 mps 737 mmHg 52%
    18:00 +12°C° 0 mm 4 mps 737 mmHg 58%
    19:00 +11°C° 0 mm 4 mps 737 mmHg 63%
    20:00 +9°C° 0 mm 3 mps 737 mmHg 69%
    21:00 +9°C° 0.1 mm 3 mps 738 mmHg 71%
    22:00 +9°C° 0.1 mm 3 mps 738 mmHg 73%
    23:00 +9°C° 0.1 mm 3 mps 738 mmHg 75%

    27 April, Friday

    Time Temperature Precipitation Wind Pressure Humidity
    00:00 +7°C° 0.1 mm 4 mps 738 mmHg 79%
    01:00 +7°C° 0.1 mm 4 mps 738 mmHg 83%
    02:00 +7°C° 0.1 mm 5 mps 738 mmHg 88%
    03:00 +6°C° 0 mm 4 mps 739 mmHg 90%
    04:00 +5°C° 0 mm 4 mps 739 mmHg 92%
    05:00 +4°C° 0 mm 3 mps 740 mmHg 94%
    06:00 +5°C° 0 mm 4 mps 740 mmHg 86%
    07:00 +7°C° 0 mm 4 mps 741 mmHg 78%
    08:00 +8°C° 0 mm 4 mps 741 mmHg 71%
    09:00 +10°C° 0 mm 4 mps 741 mmHg 64%
    10:00 +12°C° 0 mm 5 mps 742 mmHg 58%
    11:00 +13°C° 0 mm 5 mps 742 mmHg 52%
    12:00 +13°C° 0.1 mm 5 mps 742 mmHg 53%
    13:00 +14°C° 0.1 mm 5 mps 742 mmHg 54%
    14:00 +14°C° 0.1 mm 5 mps 742 mmHg 54%
    15:00 +14°C° 0.1 mm 5 mps 742 mmHg 55%
    16:00 +14°C° 0.1 mm 5 mps 742 mmHg 55%
    17:00 +14°C° 0.1 mm 4 mps 742 mmHg 55%
    18:00 +13°C° 0.1 mm 3 mps 742 mmHg 60%
    19:00 +11°C° 0.1 mm 3 mps 743 mmHg 66%
    20:00 +10°C° 0.1 mm 2 mps 743 mmHg 71%
    21:00 +9°C° 0 mm 2 mps 744 mmHg 73%
    22:00 +9°C° 0 mm 1 mps 744 mmHg 75%
    23:00 +8°C° 0 mm 1 mps 744 mmHg 77%

    28 April, Saturday

    Time Temperature Precipitation Wind Pressure Humidity
    00:00 +8°C° 0 mm 1 mps 745 mmHg 78%
    01:00 +7°C° 0 mm 1 mps 745 mmHg 79%
    02:00 +7°C° 0 mm 1 mps 745 mmHg 80%
    03:00 +7°C° 0 mm 1 mps 745 mmHg 80%
    04:00 +6°C° 0 mm 0 mps 746 mmHg 79%
    05:00 +6°C° 0 mm 0 mps 746 mmHg 79%
    06:00 +9°C° 0 mm 1 mps 746 mmHg 72%
    07:00 +10°C° 0 mm 1 mps 746 mmHg 66%
    08:00 +12°C° 0 mm 1 mps 746 mmHg 59%
    09:00 +14°C° 0 mm 1 mps 746 mmHg 54%
    10:00 +15°C° 0 mm 2 mps 746 mmHg 49%
    11:00 +16°C° 0 mm 2 mps 746 mmHg 44%
    12:00 +17°C° 0 mm 2 mps 746 mmHg 43%
    13:00 +17°C° 0 mm 2 mps 746 mmHg 42%
    14:00 +18°C° 0 mm 2 mps 745 mmHg 40%
    15:00 +18°C° 0 mm 2 mps 745 mmHg 44%
    16:00 +18°C° 0 mm 2 mps 745 mmHg 48%
    17:00 +17°C° 0 mm 2 mps 744 mmHg 52%
    18:00 +16°C° 0 mm 2 mps 744 mmHg 56%
    19:00 +15°C° 0 mm 2 mps 744 mmHg 61%
    20:00 +14°C° 0 mm 2 mps 744 mmHg 65%
    21:00 +13°C° 0 mm 2 mps 743 mmHg 68%
    22:00 +13°C° 0 mm 2 mps 743 mmHg 71%
    23:00 +12°C° 0 mm 3 mps 743 mmHg 74%
    Show more